Time,TemperatureF,DewpointF,PressureIn,WindDirection,WindDirectionDegrees,WindSpeedMPH,WindSpeedGustMPH,Humidity,HourlyPrecipIn,Conditions,Clouds,dailyrainin,SoftwareType,DateUTC
2013-05-17 00:00:00,59.9,57.3,29.86,ESE,112,3.0,5.0,91,0.00,,,0.00,VWS V14.00,2013-05-17 05:00:00,
2013-05-17 00:05:00,59.9,57.3,29.86,ESE,112,3.0,5.0,91,0.00,,,0.00,VWS V14.00,2013-05-17 05:05:00,
2013-05-17 00:10:00,59.8,57.2,29.86,ESE,112,4.0,7.0,91,0.00,,,0.00,VWS V14.00,2013-05-17 05:10:00,
2013-05-17 00:15:00,59.7,57.1,29.85,ESE,112,4.0,7.0,91,0.00,,,0.00,VWS V14.00,2013-05-17 05:15:00,
2013-05-17 00:20:00,59.7,57.4,29.85,ESE,112,4.0,7.0,92,0.00,,,0.00,VWS V14.00,2013-05-17 05:20:00,
2013-05-17 00:25:00,59.9,57.6,29.85,SE,135,3.0,6.0,92,0.00,,,0.00,VWS V14.00,2013-05-17 05:25:00,
2013-05-17 00:30:00,60.0,58.0,29.85,ESE,112,3.0,5.0,93,0.00,,,0.00,VWS V14.00,2013-05-17 05:30:00,
2013-05-17 00:35:00,60.0,57.7,29.85,ESE,112,1.0,5.0,92,0.00,,,0.00,VWS V14.00,2013-05-17 05:35:00,
2013-05-17 00:40:00,60.1,57.8,29.85,SE,135,1.0,4.0,92,0.00,,,0.00,VWS V14.00,2013-05-17 05:40:00,
2013-05-17 00:45:00,60.1,57.8,29.85,SE,135,0.0,3.0,92,0.00,,,0.00,VWS V14.00,2013-05-17 05:45:00,
2013-05-17 00:50:00,60.1,57.8,29.85,SE,135,1.0,4.0,92,0.00,,,0.00,VWS V14.00,2013-05-17 05:50:00,
2013-05-17 00:55:00,60.1,57.8,29.85,SE,135,3.0,4.0,92,0.00,,,0.00,VWS V14.00,2013-05-17 05:55:00,
2013-05-17 01:00:00,60.0,57.7,29.85,SE,135,2.0,6.0,92,0.00,,,0.00,VWS V14.00,2013-05-17 06:00:00,
2013-05-17 01:05:00,60.0,57.7,29.85,SE,135,2.0,5.0,92,0.00,,,0.00,VWS V14.00,2013-05-17 06:05:00,
2013-05-17 01:10:00,59.9,57.6,29.85,SE,135,2.0,6.0,92,0.00,,,0.00,VWS V14.00,2013-05-17 06:10:00,
2013-05-17 01:15:00,60.0,58.0,29.85,SE,135,2.0,6.0,93,0.00,,,0.00,VWS V14.00,2013-05-17 06:15:00,
2013-05-17 01:20:00,60.0,57.7,29.86,SE,135,0.0,4.0,92,0.00,,,0.00,VWS V14.00,2013-05-17 06:20:00,
2013-05-17 01:25:00,60.0,57.7,29.86,SE,135,0.0,0.0,92,0.00,,,0.00,VWS V14.00,2013-05-17 06:25:00,
2013-05-17 01:30:00,60.0,58.0,29.86,SE,135,0.0,0.0,93,0.00,,,0.00,VWS V14.00,2013-05-17 06:30:00,
2013-05-17 01:35:00,60.1,58.1,29.86,SE,135,1.0,4.0,93,0.00,,,0.00,VWS V14.00,2013-05-17 06:35:00,
2013-05-17 01:40:00,60.2,58.2,29.86,SE,135,1.0,4.0,93,0.00,,,0.00,VWS V14.00,2013-05-17 06:40:00,
2013-05-17 01:45:00,60.3,58.3,29.86,SE,135,2.0,6.0,93,0.00,,,0.00,VWS V14.00,2013-05-17 06:45:00,
2013-05-17 01:50:00,60.4,58.4,29.86,SSE,158,1.0,5.0,93,0.00,,,0.00,VWS V14.00,2013-05-17 06:50:00,
2013-05-17 01:55:00,60.6,58.3,29.86,SSE,158,1.0,4.0,92,0.00,,,0.00,VWS V14.00,2013-05-17 06:55:00,
2013-05-17 02:00:00,60.8,58.5,29.86,SSE,158,2.0,8.0,92,0.00,,,0.00,VWS V14.00,2013-05-17 07:00:00,
2013-05-17 02:05:00,61.0,58.7,29.86,SSE,158,1.0,6.0,92,0.00,,,0.00,VWS V14.00,2013-05-17 07:05:00,
2013-05-17 02:10:00,61.1,58.5,29.86,SSE,158,1.0,6.0,91,0.00,,,0.00,VWS V14.00,2013-05-17 07:10:00,
2013-05-17 02:15:00,61.3,58.7,29.85,SSE,158,1.0,5.0,91,0.00,,,0.00,VWS V14.00,2013-05-17 07:15:00,
2013-05-17 02:20:00,61.4,58.8,29.85,SSE,158,2.0,7.0,91,0.00,,,0.00,VWS V14.00,2013-05-17 07:20:00,
2013-05-17 02:25:00,61.6,58.6,29.85,SSE,158,2.0,7.0,90,0.00,,,0.00,VWS V14.00,2013-05-17 07:25:00,
2013-05-17 02:30:00,61.7,58.7,29.86,South,180,3.0,6.0,90,0.00,,,0.00,VWS V14.00,2013-05-17 07:30:00,
2013-05-17 02:35:00,61.8,58.8,29.86,South,180,3.0,6.0,90,0.00,,,0.00,VWS V14.00,2013-05-17 07:35:00,
2013-05-17 02:40:00,61.9,58.9,29.86,SSE,158,3.0,7.0,90,0.00,,,0.00,VWS V14.00,2013-05-17 07:40:00,
2013-05-17 02:45:00,62.0,58.7,29.86,SSE,158,2.0,6.0,89,0.00,,,0.00,VWS V14.00,2013-05-17 07:45:00,
2013-05-17 02:50:00,62.0,58.7,29.85,South,180,3.0,7.0,89,0.00,,,0.00,VWS V14.00,2013-05-17 07:50:00,
2013-05-17 02:55:00,62.0,58.7,29.85,SSE,158,3.0,7.0,89,0.00,,,0.00,VWS V14.00,2013-05-17 07:55:00,
2013-05-17 03:00:00,62.0,58.7,29.84,South,180,3.0,7.0,89,0.00,,,0.00,VWS V14.00,2013-05-17 08:00:00,
2013-05-17 03:05:00,61.9,58.6,29.84,South,180,4.0,7.0,89,0.00,,,0.00,VWS V14.00,2013-05-17 08:05:00,
2013-05-17 03:10:00,61.8,58.5,29.84,SSE,158,3.0,7.0,89,0.00,,,0.00,VWS V14.00,2013-05-17 08:10:00,
2013-05-17 03:15:00,61.6,58.3,29.84,SSE,158,3.0,6.0,89,0.00,,,0.00,VWS V14.00,2013-05-17 08:15:00,
2013-05-17 03:20:00,61.5,58.2,29.84,South,180,4.0,7.0,89,0.00,,,0.00,VWS V14.00,2013-05-17 08:20:00,
2013-05-17 03:25:00,61.4,57.8,29.84,South,180,5.0,8.0,88,0.00,,,0.00,VWS V14.00,2013-05-17 08:25:00,
2013-05-17 03:30:00,61.2,57.9,29.84,South,180,5.0,9.0,89,0.00,,,0.00,VWS V14.00,2013-05-17 08:30:00,
2013-05-17 03:35:00,61.1,57.8,29.84,South,180,4.0,8.0,89,0.00,,,0.00,VWS V14.00,2013-05-17 08:35:00,
2013-05-17 03:40:00,61.0,57.7,29.84,South,180,3.0,6.0,89,0.00,,,0.00,VWS V14.00,2013-05-17 08:40:00,
2013-05-17 03:45:00,60.8,57.5,29.84,South,180,3.0,5.0,89,0.00,,,0.00,VWS V14.00,2013-05-17 08:45:00,
2013-05-17 03:50:00,60.7,57.4,29.84,South,180,4.0,7.0,89,0.00,,,0.00,VWS V14.00,2013-05-17 08:50:00,
2013-05-17 03:55:00,60.6,57.7,29.84,SSW,202,3.0,6.0,90,0.00,,,0.00,VWS V14.00,2013-05-17 08:55:00,
2013-05-17 04:00:00,60.5,57.6,29.84,SSW,202,2.0,4.0,90,0.00,,,0.00,VWS V14.00,2013-05-17 09:00:00,
2013-05-17 04:05:00,60.4,57.5,29.84,SSW,202,0.0,3.0,90,0.00,,,0.00,VWS V14.00,2013-05-17 09:05:00,
2013-05-17 04:10:00,60.3,57.4,29.84,SSW,202,1.0,3.0,90,0.00,,,0.00,VWS V14.00,2013-05-17 09:10:00,
2013-05-17 04:15:00,60.2,57.3,29.84,SSW,202,0.0,0.0,90,0.00,,,0.00,VWS V14.00,2013-05-17 09:15:00,
2013-05-17 04:20:00,60.1,57.2,29.84,SSW,202,0.0,3.0,90,0.00,,,0.00,VWS V14.00,2013-05-17 09:20:00,
2013-05-17 04:25:00,59.9,57.0,29.84,SSW,202,0.0,2.0,90,0.00,,,0.00,VWS V14.00,2013-05-17 09:25:00,
2013-05-17 04:30:00,59.8,56.9,29.85,SSW,202,1.0,3.0,90,0.00,,,0.00,VWS V14.00,2013-05-17 09:30:00,
2013-05-17 04:35:00,59.6,57.0,29.85,SSW,202,0.0,0.0,91,0.00,,,0.00,VWS V14.00,2013-05-17 09:35:00,
2013-05-17 04:40:00,59.5,56.9,29.85,SSW,202,0.0,0.0,91,0.00,,,0.00,VWS V14.00,2013-05-17 09:40:00,
2013-05-17 04:45:00,59.4,56.8,29.85,SSW,202,0.0,0.0,91,0.00,,,0.00,VWS V14.00,2013-05-17 09:45:00,
2013-05-17 04:50:00,59.2,56.3,29.85,SSW,202,0.0,0.0,90,0.00,,,0.00,VWS V14.00,2013-05-17 09:50:00,
2013-05-17 04:55:00,58.9,56.0,29.85,SSW,202,0.0,0.0,90,0.00,,,0.00,VWS V14.00,2013-05-17 09:55:00,
2013-05-17 05:00:00,58.6,56.0,29.85,SSW,202,0.0,0.0,91,0.00,,,0.00,VWS V14.00,2013-05-17 10:00:00,
2013-05-17 05:05:00,58.3,55.4,29.85,SSW,202,0.0,0.0,90,0.00,,,0.00,VWS V14.00,2013-05-17 10:05:00,
2013-05-17 05:10:00,58.0,55.1,29.85,SSW,202,0.0,0.0,90,0.00,,,0.00,VWS V14.00,2013-05-17 10:10:00,
2013-05-17 05:15:00,57.7,55.1,29.86,SSW,202,0.0,0.0,91,0.00,,,0.00,VWS V14.00,2013-05-17 10:15:00,
2013-05-17 05:20:00,57.6,55.0,29.86,SSW,202,0.0,0.0,91,0.00,,,0.00,VWS V14.00,2013-05-17 10:20:00,
2013-05-17 05:25:00,57.4,54.8,29.86,SSW,202,0.0,0.0,91,0.00,,,0.00,VWS V14.00,2013-05-17 10:25:00,
2013-05-17 05:30:00,57.3,55.0,29.86,SSW,202,0.0,0.0,92,0.00,,,0.00,VWS V14.00,2013-05-17 10:30:00,
2013-05-17 05:35:00,57.1,54.8,29.86,SE,135,0.0,2.0,92,0.00,,,0.00,VWS V14.00,2013-05-17 10:35:00,
2013-05-17 05:40:00,57.0,54.7,29.86,East,90,2.0,3.0,92,0.00,,,0.00,VWS V14.00,2013-05-17 10:40:00,
2013-05-17 05:45:00,56.8,54.5,29.85,East,90,2.0,3.0,92,0.00,,,0.00,VWS V14.00,2013-05-17 10:45:00,
2013-05-17 05:50:00,56.8,54.5,29.85,East,90,2.0,3.0,92,0.00,,,0.00,VWS V14.00,2013-05-17 10:50:00,
2013-05-17 05:55:00,56.8,54.5,29.86,East,90,0.0,2.0,92,0.00,,,0.00,VWS V14.00,2013-05-17 10:55:00,
2013-05-17 06:00:00,56.8,54.8,29.86,East,90,1.0,2.0,93,0.00,,,0.00,VWS V14.00,2013-05-17 11:00:00,
2013-05-17 06:05:00,56.8,54.8,29.86,East,90,0.0,0.0,93,0.00,,,0.00,VWS V14.00,2013-05-17 11:05:00,
2013-05-17 06:10:00,56.9,54.9,29.86,East,90,0.0,0.0,93,0.00,,,0.00,VWS V14.00,2013-05-17 11:10:00,
2013-05-17 06:15:00,56.9,54.9,29.87,East,90,0.0,0.0,93,0.00,,,0.00,VWS V14.00,2013-05-17 11:15:00,
2013-05-17 06:20:00,57.1,55.1,29.87,East,90,0.0,0.0,93,0.00,,,0.00,VWS V14.00,2013-05-17 11:20:00,
2013-05-17 06:25:00,57.1,55.4,29.87,East,90,0.0,0.0,94,0.00,,,0.00,VWS V14.00,2013-05-17 11:25:00,
2013-05-17 06:30:00,57.4,55.7,29.87,East,90,0.0,0.0,94,0.00,,,0.00,VWS V14.00,2013-05-17 11:30:00,
2013-05-17 06:35:00,57.6,55.9,29.87,East,90,0.0,0.0,94,0.00,,,0.00,VWS V14.00,2013-05-17 11:35:00,
2013-05-17 06:40:00,57.5,55.8,29.88,East,90,0.0,0.0,94,0.00,,,0.00,VWS V14.00,2013-05-17 11:40:00,
2013-05-17 06:45:00,57.6,55.9,29.88,East,90,0.0,0.0,94,0.00,,,0.00,VWS V14.00,2013-05-17 11:45:00,
2013-05-17 06:50:00,57.8,56.1,29.88,East,90,0.0,0.0,94,0.00,,,0.00,VWS V14.00,2013-05-17 11:50:00,
2013-05-17 06:55:00,58.2,56.5,29.89,East,90,0.0,0.0,94,0.00,,,0.00,VWS V14.00,2013-05-17 11:55:00,
2013-05-17 07:00:00,58.4,56.7,29.89,East,90,0.0,0.0,94,0.00,,,0.00,VWS V14.00,2013-05-17 12:00:00,
2013-05-17 07:05:00,58.7,57.0,29.89,East,90,0.0,0.0,94,0.00,,,0.00,VWS V14.00,2013-05-17 12:05:00,
2013-05-17 07:10:00,59.0,57.6,29.90,East,90,0.0,0.0,95,0.00,,,0.00,VWS V14.00,2013-05-17 12:10:00,
2013-05-17 07:15:00,59.3,57.9,29.90,East,90,0.0,0.0,95,0.00,,,0.00,VWS V14.00,2013-05-17 12:15:00,
2013-05-17 07:20:00,59.4,58.0,29.90,East,90,0.0,0.0,95,0.00,,,0.00,VWS V14.00,2013-05-17 12:20:00,
2013-05-17 07:25:00,59.6,58.2,29.90,East,90,2.0,5.0,95,0.00,,,0.00,VWS V14.00,2013-05-17 12:25:00,
2013-05-17 07:30:00,59.7,58.3,29.90,ESE,112,1.0,4.0,95,0.00,,,0.00,VWS V14.00,2013-05-17 12:30:00,
2013-05-17 07:35:00,59.8,58.1,29.90,East,90,1.0,3.0,94,0.00,,,0.00,VWS V14.00,2013-05-17 12:35:00,
2013-05-17 07:40:00,60.0,58.3,29.91,East,90,0.0,1.0,94,0.00,,,0.00,VWS V14.00,2013-05-17 12:40:00,
2013-05-17 07:45:00,60.2,58.5,29.91,East,90,1.0,4.0,94,0.00,,,0.00,VWS V14.00,2013-05-17 12:45:00,
2013-05-17 07:50:00,60.4,58.7,29.91,East,90,1.0,4.0,94,0.00,,,0.00,VWS V14.00,2013-05-17 12:50:00,
2013-05-17 07:55:00,60.5,58.8,29.91,East,90,1.0,5.0,94,0.00,,,0.00,VWS V14.00,2013-05-17 12:55:00,
2013-05-17 08:00:00,60.7,59.0,29.92,East,90,0.0,3.0,94,0.00,,,0.00,VWS V14.00,2013-05-17 13:00:00,
2013-05-17 08:05:00,61.0,59.3,29.92,East,90,0.0,4.0,94,0.00,,,0.00,VWS V14.00,2013-05-17 13:05:00,
2013-05-17 08:10:00,61.1,59.4,29.92,East,90,0.0,0.0,94,0.00,,,0.00,VWS V14.00,2013-05-17 13:10:00,
2013-05-17 08:15:00,61.4,59.7,29.92,East,90,0.0,0.0,94,0.00,,,0.00,VWS V14.00,2013-05-17 13:15:00,
2013-05-17 08:20:00,61.5,59.5,29.93,East,90,0.0,0.0,93,0.00,,,0.00,VWS V14.00,2013-05-17 13:20:00,
2013-05-17 08:25:00,61.8,59.8,29.92,ESE,112,2.0,5.0,93,0.00,,,0.00,VWS V14.00,2013-05-17 13:25:00,
2013-05-17 08:30:00,62.0,59.7,29.93,ESE,112,0.0,0.0,92,0.00,,,0.00,VWS V14.00,2013-05-17 13:30:00,
2013-05-17 08:35:00,62.2,59.8,29.92,ESE,112,1.0,4.0,92,0.00,,,0.00,VWS V14.00,2013-05-17 13:35:00,
2013-05-17 08:40:00,62.6,60.2,29.92,ESE,112,1.0,5.0,92,0.00,,,0.00,VWS V14.00,2013-05-17 13:40:00,
2013-05-17 08:45:00,62.8,59.8,29.92,ESE,112,1.0,4.0,90,0.00,,,0.00,VWS V14.00,2013-05-17 13:45:00,
2013-05-17 08:50:00,63.0,60.0,29.93,SE,135,1.0,4.0,90,0.00,,,0.00,VWS V14.00,2013-05-17 13:50:00,
2013-05-17 08:55:00,63.2,60.2,29.93,SE,135,1.0,3.0,90,0.00,,,0.00,VWS V14.00,2013-05-17 13:55:00,
2013-05-17 09:00:00,63.4,60.1,29.93,SSE,158,0.0,4.0,89,0.00,,,0.00,VWS V14.00,2013-05-17 14:00:00,
2013-05-17 09:05:00,63.7,60.4,29.93,SSE,158,0.0,1.0,89,0.00,,,0.00,VWS V14.00,2013-05-17 14:05:00,
2013-05-17 09:10:00,64.0,60.4,29.93,SSE,158,0.0,1.0,88,0.00,,,0.00,VWS V14.00,2013-05-17 14:10:00,
2013-05-17 09:15:00,64.3,61.3,29.93,SSE,158,0.0,4.0,90,0.00,,,0.00,VWS V14.00,2013-05-17 14:15:00,
2013-05-17 09:20:00,64.8,60.8,29.92,ESE,112,1.0,4.0,87,0.00,,,0.00,VWS V14.00,2013-05-17 14:20:00,
2013-05-17 09:25:00,65.2,61.2,29.92,ESE,112,0.0,3.0,87,0.00,,,0.00,VWS V14.00,2013-05-17 14:25:00,
2013-05-17 09:30:00,65.6,61.0,29.92,East,90,0.0,3.0,85,0.00,,,0.00,VWS V14.00,2013-05-17 14:30:00,
2013-05-17 09:35:00,65.7,61.1,29.92,ESE,112,0.0,3.0,85,0.00,,,0.00,VWS V14.00,2013-05-17 14:35:00,
2013-05-17 09:40:00,66.1,61.8,29.92,ESE,112,0.0,1.0,86,0.00,,,0.00,VWS V14.00,2013-05-17 14:40:00,
2013-05-17 09:45:00,66.5,61.5,29.92,East,90,0.0,5.0,84,0.00,,,0.00,VWS V14.00,2013-05-17 14:45:00,
2013-05-17 09:50:00,67.0,61.7,29.92,East,90,0.0,1.0,83,0.00,,,0.00,VWS V14.00,2013-05-17 14:50:00,
2013-05-17 09:55:00,67.4,62.4,29.92,East,90,0.0,3.0,84,0.00,,,0.00,VWS V14.00,2013-05-17 14:55:00,
2013-05-17 10:00:00,67.8,62.5,29.92,SSE,158,0.0,5.0,83,0.00,,,0.00,VWS V14.00,2013-05-17 15:00:00,
2013-05-17 10:05:00,68.1,62.1,29.92,South,180,0.0,4.0,81,0.00,,,0.00,VWS V14.00,2013-05-17 15:05:00,
2013-05-17 10:10:00,68.2,61.8,29.92,South,180,0.0,2.0,80,0.00,,,0.00,VWS V14.00,2013-05-17 15:10:00,
2013-05-17 10:15:00,68.5,62.1,29.92,South,180,0.0,0.0,80,0.00,,,0.00,VWS V14.00,2013-05-17 15:15:00,
2013-05-17 10:20:00,68.6,61.8,29.92,South,180,0.0,1.0,79,0.00,,,0.00,VWS V14.00,2013-05-17 15:20:00,
2013-05-17 10:25:00,68.7,61.6,29.91,South,180,0.0,3.0,78,0.00,,,0.00,VWS V14.00,2013-05-17 15:25:00,
2013-05-17 10:30:00,68.8,61.3,29.91,South,180,0.0,2.0,77,0.00,,,0.00,VWS V14.00,2013-05-17 15:30:00,
2013-05-17 10:35:00,69.2,62.4,29.91,South,180,0.0,3.0,79,0.00,,,0.00,VWS V14.00,2013-05-17 15:35:00,
2013-05-17 10:40:00,69.3,62.2,29.91,South,180,0.0,1.0,78,0.00,,,0.00,VWS V14.00,2013-05-17 15:40:00,
2013-05-17 10:45:00,69.6,62.4,29.92,South,180,0.0,0.0,78,0.00,,,0.00,VWS V14.00,2013-05-17 15:45:00,
2013-05-17 10:50:00,69.8,61.9,29.92,South,180,1.0,3.0,76,0.00,,,0.00,VWS V14.00,2013-05-17 15:50:00,
2013-05-17 10:55:00,69.6,62.1,29.92,South,180,0.0,3.0,77,0.00,,,0.00,VWS V14.00,2013-05-17 15:55:00,
2013-05-17 11:00:00,69.6,62.1,29.92,South,180,0.0,3.0,77,0.00,,,0.00,VWS V14.00,2013-05-17 16:00:00,
2013-05-17 11:05:00,69.5,62.0,29.92,SSW,202,2.0,6.0,77,0.00,,,0.00,VWS V14.00,2013-05-17 16:05:00,
2013-05-17 11:10:00,69.3,61.4,29.92,SSW,202,0.0,3.0,76,0.00,,,0.00,VWS V14.00,2013-05-17 16:10:00,
2013-05-17 11:15:00,69.6,62.1,29.92,SSW,202,0.0,2.0,77,0.00,,,0.00,VWS V14.00,2013-05-17 16:15:00,
2013-05-17 11:20:00,70.1,62.2,29.92,SSW,202,0.0,0.0,76,0.00,,,0.00,VWS V14.00,2013-05-17 16:20:00,
2013-05-17 11:25:00,70.3,61.2,29.92,SSW,202,0.0,2.0,73,0.00,,,0.00,VWS V14.00,2013-05-17 16:25:00,
2013-05-17 11:30:00,70.3,61.6,29.92,SSW,202,0.0,3.0,74,0.00,,,0.00,VWS V14.00,2013-05-17 16:30:00,
2013-05-17 11:35:00,70.4,61.7,29.92,South,180,3.0,6.0,74,0.00,,,0.00,VWS V14.00,2013-05-17 16:35:00,
2013-05-17 11:40:00,70.5,61.8,29.92,South,180,0.0,3.0,74,0.00,,,0.00,VWS V14.00,2013-05-17 16:40:00,
2013-05-17 11:45:00,70.7,61.6,29.92,South,180,0.0,0.0,73,0.00,,,0.00,VWS V14.00,2013-05-17 16:45:00,
2013-05-17 11:50:00,70.9,62.6,29.91,SSE,158,0.0,1.0,75,0.00,,,0.00,VWS V14.00,2013-05-17 16:50:00,
2013-05-17 11:55:00,71.8,63.8,29.91,ENE,68,0.0,5.0,76,0.00,,,0.00,VWS V14.00,2013-05-17 16:55:00,
2013-05-17 12:00:00,72.5,62.2,29.91,ENE,68,1.0,5.0,70,0.00,,,0.00,VWS V14.00,2013-05-17 17:00:00,
2013-05-17 12:05:00,72.9,61.7,29.91,ESE,112,0.0,3.0,68,0.00,,,0.00,VWS V14.00,2013-05-17 17:05:00,
2013-05-17 12:10:00,73.6,63.2,29.91,ESE,112,0.0,4.0,70,0.00,,,0.00,VWS V14.00,2013-05-17 17:10:00,
2013-05-17 12:15:00,74.3,63.1,29.91,SSE,158,1.0,3.0,68,0.00,,,0.00,VWS V14.00,2013-05-17 17:15:00,
2013-05-17 12:20:00,74.4,61.9,29.91,ENE,68,1.0,5.0,65,0.00,,,0.00,VWS V14.00,2013-05-17 17:20:00,
2013-05-17 12:25:00,74.2,62.5,29.91,ESE,112,1.0,5.0,67,0.00,,,0.00,VWS V14.00,2013-05-17 17:25:00,
2013-05-17 12:30:00,74.2,61.7,29.91,East,90,1.0,4.0,65,0.00,,,0.00,VWS V14.00,2013-05-17 17:30:00,
2013-05-17 12:35:00,74.0,61.1,29.90,East,90,0.0,3.0,64,0.00,,,0.00,VWS V14.00,2013-05-17 17:35:00,
2013-05-17 12:40:00,74.2,62.1,29.90,East,90,0.0,2.0,66,0.00,,,0.00,VWS V14.00,2013-05-17 17:40:00,
2013-05-17 12:45:00,74.2,62.5,29.90,ESE,112,1.0,4.0,67,0.00,,,0.00,VWS V14.00,2013-05-17 17:45:00,
2013-05-17 12:50:00,74.2,62.1,29.90,ESE,112,0.0,3.0,66,0.00,,,0.00,VWS V14.00,2013-05-17 17:50:00,
2013-05-17 12:55:00,74.0,62.4,29.90,ESE,112,0.0,0.0,67,0.00,,,0.00,VWS V14.00,2013-05-17 17:55:00,
2013-05-17 13:00:00,73.8,60.9,29.90,ESE,112,0.0,0.0,64,0.00,,,0.00,VWS V14.00,2013-05-17 18:00:00,
2013-05-17 13:05:00,73.9,62.7,29.90,ESE,112,0.0,0.0,68,0.00,,,0.00,VWS V14.00,2013-05-17 18:05:00,
2013-05-17 13:10:00,74.0,63.2,29.90,ESE,112,0.0,1.0,69,0.00,,,0.00,VWS V14.00,2013-05-17 18:10:00,
2013-05-17 13:15:00,74.1,62.0,29.90,ESE,112,0.0,0.0,66,0.00,,,0.00,VWS V14.00,2013-05-17 18:15:00,
2013-05-17 13:20:00,74.2,62.5,29.90,ESE,112,0.0,2.0,67,0.00,,,0.00,VWS V14.00,2013-05-17 18:20:00,
2013-05-17 13:25:00,74.3,62.6,29.90,ENE,68,2.0,6.0,67,0.00,,,0.00,VWS V14.00,2013-05-17 18:25:00,
2013-05-17 13:30:00,74.5,63.3,29.90,NE,45,1.0,4.0,68,0.00,,,0.00,VWS V14.00,2013-05-17 18:30:00,
2013-05-17 13:35:00,74.2,62.1,29.90,SE,135,3.0,5.0,66,0.00,,,0.00,VWS V14.00,2013-05-17 18:35:00,
2013-05-17 13:40:00,73.9,62.3,29.90,ENE,68,1.0,5.0,67,0.00,,,0.00,VWS V14.00,2013-05-17 18:40:00,
2013-05-17 13:45:00,74.1,63.3,29.90,ESE,112,3.0,5.0,69,0.00,,,0.00,VWS V14.00,2013-05-17 18:45:00,
2013-05-17 13:50:00,74.2,62.5,29.90,SE,135,2.0,7.0,67,0.00,,,0.00,VWS V14.00,2013-05-17 18:50:00,
2013-05-17 13:55:00,74.3,62.6,29.89,NNE,22,1.0,7.0,67,0.00,,,0.00,VWS V14.00,2013-05-17 18:55:00,
2013-05-17 14:00:00,74.4,63.6,29.89,NNE,22,0.0,7.0,69,0.00,,,0.00,VWS V14.00,2013-05-17 19:00:00,
2013-05-17 14:05:00,74.6,62.5,29.89,North,0,1.0,7.0,66,0.00,,,0.00,VWS V14.00,2013-05-17 19:05:00,
2013-05-17 14:10:00,74.8,62.7,29.89,East,90,1.0,5.0,66,0.00,,,0.00,VWS V14.00,2013-05-17 19:10:00,
2013-05-17 14:15:00,74.6,61.2,29.89,East,90,0.0,0.0,63,0.00,,,0.00,VWS V14.00,2013-05-17 19:15:00,
2013-05-17 14:20:00,74.5,62.0,29.89,ENE,68,1.0,5.0,65,0.00,,,0.00,VWS V14.00,2013-05-17 19:20:00,
2013-05-17 14:25:00,74.6,63.8,29.89,NE,45,0.0,3.0,69,0.00,,,0.00,VWS V14.00,2013-05-17 19:25:00,
2013-05-17 14:30:00,74.8,63.1,29.89,NE,45,0.0,3.0,67,0.00,,,0.00,VWS V14.00,2013-05-17 19:30:00,
2013-05-17 14:35:00,75.0,62.9,29.89,NE,45,1.0,4.0,66,0.00,,,0.00,VWS V14.00,2013-05-17 19:35:00,
2013-05-17 14:40:00,75.3,63.2,29.89,NE,45,0.0,0.0,66,0.00,,,0.00,VWS V14.00,2013-05-17 19:40:00,
2013-05-17 14:45:00,75.5,62.9,29.89,NNE,22,0.0,1.0,65,0.00,,,0.00,VWS V14.00,2013-05-17 19:45:00,
2013-05-17 14:50:00,75.7,62.7,29.89,NE,45,0.0,1.0,64,0.00,,,0.00,VWS V14.00,2013-05-17 19:50:00,
2013-05-17 14:55:00,75.8,61.9,29.89,ESE,112,0.0,2.0,62,0.00,,,0.00,VWS V14.00,2013-05-17 19:55:00,
2013-05-17 15:00:00,76.0,63.4,29.89,East,90,0.0,1.0,65,0.00,,,0.00,VWS V14.00,2013-05-17 20:00:00,
2013-05-17 15:05:00,76.5,63.0,29.89,SSE,158,0.0,4.0,63,0.00,,,0.00,VWS V14.00,2013-05-17 20:05:00,
2013-05-17 15:10:00,76.7,62.7,29.89,South,180,0.0,3.0,62,0.00,,,0.00,VWS V14.00,2013-05-17 20:10:00,
2013-05-17 15:15:00,77.0,61.6,29.89,ENE,68,0.0,3.0,59,0.00,,,0.00,VWS V14.00,2013-05-17 20:15:00,
2013-05-17 15:20:00,76.8,63.3,29.88,ESE,112,0.0,2.0,63,0.00,,,0.00,VWS V14.00,2013-05-17 20:20:00,
2013-05-17 15:25:00,76.4,63.8,29.88,South,180,1.0,5.0,65,0.00,,,0.00,VWS V14.00,2013-05-17 20:25:00,
2013-05-17 15:30:00,76.2,61.3,29.88,SE,135,2.0,7.0,60,0.00,,,0.00,VWS V14.00,2013-05-17 20:30:00,
2013-05-17 15:35:00,76.0,62.0,29.88,SE,135,1.0,3.0,62,0.00,,,0.00,VWS V14.00,2013-05-17 20:35:00,
2013-05-17 15:40:00,76.0,61.1,29.88,SSE,158,1.0,4.0,60,0.00,,,0.00,VWS V14.00,2013-05-17 20:40:00,
2013-05-17 15:45:00,76.3,61.4,29.88,SSE,158,0.0,0.0,60,0.00,,,0.00,VWS V14.00,2013-05-17 20:45:00,
2013-05-17 15:50:00,76.5,63.0,29.88,ESE,112,0.0,6.0,63,0.00,,,0.00,VWS V14.00,2013-05-17 20:50:00,
2013-05-17 15:55:00,77.0,63.0,29.88,SE,135,1.0,3.0,62,0.00,,,0.00,VWS V14.00,2013-05-17 20:55:00,
2013-05-17 16:00:00,77.6,64.5,29.88,ESE,112,2.0,5.0,64,0.00,,,0.00,VWS V14.00,2013-05-17 21:00:00,
2013-05-17 16:05:00,77.9,63.4,29.88,ENE,68,1.0,5.0,61,0.00,,,0.00,VWS V14.00,2013-05-17 21:05:00,
2013-05-17 16:10:00,78.0,63.5,29.88,ENE,68,3.0,8.0,61,0.00,,,0.00,VWS V14.00,2013-05-17 21:10:00,
2013-05-17 16:15:00,77.7,61.8,29.88,ENE,68,3.0,7.0,58,0.00,,,0.00,VWS V14.00,2013-05-17 21:15:00,
2013-05-17 16:20:00,77.6,62.2,29.87,ENE,68,3.0,6.0,59,0.00,,,0.00,VWS V14.00,2013-05-17 21:20:00,
2013-05-17 16:25:00,77.7,64.1,29.87,NE,45,3.0,8.0,63,0.00,,,0.00,VWS V14.00,2013-05-17 21:25:00,
2013-05-17 16:30:00,77.7,63.7,29.87,South,180,2.0,6.0,62,0.00,,,0.00,VWS V14.00,2013-05-17 21:30:00,
2013-05-17 16:35:00,77.5,62.5,29.87,SSW,202,0.0,3.0,60,0.00,,,0.00,VWS V14.00,2013-05-17 21:35:00,
2013-05-17 16:40:00,77.4,63.4,29.87,East,90,0.0,3.0,62,0.00,,,0.00,VWS V14.00,2013-05-17 21:40:00,
2013-05-17 16:45:00,77.1,62.2,29.87,East,90,0.0,2.0,60,0.00,,,0.00,VWS V14.00,2013-05-17 21:45:00,
2013-05-17 16:50:00,76.9,63.4,29.86,East,90,2.0,5.0,63,0.00,,,0.00,VWS V14.00,2013-05-17 21:50:00,
2013-05-17 16:55:00,76.8,62.3,29.86,NNE,22,2.0,5.0,61,0.00,,,0.00,VWS V14.00,2013-05-17 21:55:00,
2013-05-17 17:00:00,76.9,61.5,29.86,NE,45,0.0,3.0,59,0.00,,,0.00,VWS V14.00,2013-05-17 22:00:00,
2013-05-17 17:05:00,76.9,61.5,29.86,NE,45,0.0,0.0,59,0.00,,,0.00,VWS V14.00,2013-05-17 22:05:00,
2013-05-17 17:10:00,76.9,61.5,29.86,South,180,0.0,2.0,59,0.00,,,0.00,VWS V14.00,2013-05-17 22:10:00,
2013-05-17 17:15:00,77.2,61.8,29.86,SE,135,0.0,2.0,59,0.00,,,0.00,VWS V14.00,2013-05-17 22:15:00,
2013-05-17 17:20:00,77.3,61.9,29.86,SSE,158,0.0,3.0,59,0.00,,,0.00,VWS V14.00,2013-05-17 22:20:00,
2013-05-17 17:25:00,77.5,62.1,29.86,SSW,202,3.0,7.0,59,0.00,,,0.00,VWS V14.00,2013-05-17 22:25:00,
2013-05-17 17:30:00,77.5,62.1,29.86,South,180,2.0,7.0,59,0.00,,,0.00,VWS V14.00,2013-05-17 22:30:00,
2013-05-17 17:35:00,77.4,62.4,29.85,SSW,202,1.0,6.0,60,0.00,,,0.00,VWS V14.00,2013-05-17 22:35:00,
2013-05-17 17:40:00,77.3,61.9,29.86,SW,225,3.0,6.0,59,0.00,,,0.00,VWS V14.00,2013-05-17 22:40:00,
2013-05-17 17:45:00,77.2,61.3,29.85,SW,225,0.0,2.0,58,0.00,,,0.00,VWS V14.00,2013-05-17 22:45:00,
2013-05-17 17:50:00,77.0,62.1,29.86,SSW,202,0.0,3.0,60,0.00,,,0.00,VWS V14.00,2013-05-17 22:50:00,
2013-05-17 17:55:00,76.7,62.7,29.85,South,180,3.0,6.0,62,0.00,,,0.00,VWS V14.00,2013-05-17 22:55:00,
2013-05-17 18:00:00,76.6,61.2,29.85,South,180,3.0,5.0,59,0.00,,,0.00,VWS V14.00,2013-05-17 23:00:00,
2013-05-17 18:05:00,76.5,61.1,29.85,South,180,0.0,2.0,59,0.00,,,0.00,VWS V14.00,2013-05-17 23:05:00,
2013-05-17 18:10:00,76.5,61.6,29.85,South,180,0.0,0.0,60,0.00,,,0.00,VWS V14.00,2013-05-17 23:10:00,
2013-05-17 18:15:00,76.5,61.6,29.85,South,180,0.0,0.0,60,0.00,,,0.00,VWS V14.00,2013-05-17 23:15:00,
2013-05-17 18:20:00,76.5,62.1,29.85,South,180,0.0,2.0,61,0.00,,,0.00,VWS V14.00,2013-05-17 23:20:00,
2013-05-17 18:25:00,76.4,61.5,29.85,South,180,0.0,0.0,60,0.00,,,0.00,VWS V14.00,2013-05-17 23:25:00,
2013-05-17 18:30:00,76.3,62.3,29.85,South,180,1.0,3.0,62,0.00,,,0.00,VWS V14.00,2013-05-17 23:30:00,
2013-05-17 18:35:00,76.1,62.2,29.85,South,180,1.0,4.0,62,0.00,,,0.00,VWS V14.00,2013-05-17 23:35:00,
2013-05-17 18:40:00,76.0,61.1,29.85,South,180,0.0,0.0,60,0.00,,,0.00,VWS V14.00,2013-05-17 23:40:00,
2013-05-17 18:45:00,76.0,61.6,29.85,South,180,0.0,0.0,61,0.00,,,0.00,VWS V14.00,2013-05-17 23:45:00,
2013-05-17 18:50:00,75.8,61.9,29.85,South,180,0.0,1.0,62,0.00,,,0.00,VWS V14.00,2013-05-17 23:50:00,
2013-05-17 18:55:00,75.8,62.8,29.85,South,180,0.0,1.0,64,0.00,,,0.00,VWS V14.00,2013-05-17 23:55:00,
2013-05-17 19:00:00,75.5,62.5,29.85,SE,135,2.0,5.0,64,0.00,,,0.00,VWS V14.00,2013-05-18 00:00:00,
2013-05-17 19:05:00,75.3,62.7,29.85,SE,135,1.0,4.0,65,0.00,,,0.00,VWS V14.00,2013-05-18 00:05:00,
2013-05-17 19:10:00,75.1,61.7,29.85,SE,135,1.0,5.0,63,0.00,,,0.00,VWS V14.00,2013-05-18 00:10:00,
2013-05-17 19:15:00,75.0,61.6,29.85,SE,135,0.0,1.0,63,0.00,,,0.00,VWS V14.00,2013-05-18 00:15:00,
2013-05-17 19:20:00,74.9,61.9,29.85,SE,135,0.0,3.0,64,0.00,,,0.00,VWS V14.00,2013-05-18 00:20:00,
2013-05-17 19:25:00,74.8,61.8,29.85,SE,135,0.0,1.0,64,0.00,,,0.00,VWS V14.00,2013-05-18 00:25:00,
2013-05-17 19:30:00,74.6,61.6,29.85,SE,135,0.0,0.0,64,0.00,,,0.00,VWS V14.00,2013-05-18 00:30:00,
2013-05-17 19:35:00,74.4,61.9,29.86,SE,135,0.0,0.0,65,0.00,,,0.00,VWS V14.00,2013-05-18 00:35:00,
2013-05-17 19:40:00,74.2,61.7,29.86,SE,135,0.0,0.0,65,0.00,,,0.00,VWS V14.00,2013-05-18 00:40:00,
2013-05-17 19:45:00,74.0,61.5,29.86,SE,135,0.0,0.0,65,0.00,,,0.00,VWS V14.00,2013-05-18 00:45:00,
2013-05-17 19:50:00,73.8,61.7,29.86,SE,135,0.0,0.0,66,0.00,,,0.00,VWS V14.00,2013-05-18 00:50:00,
2013-05-17 19:55:00,73.6,62.0,29.86,SE,135,0.0,0.0,67,0.00,,,0.00,VWS V14.00,2013-05-18 00:55:00,
2013-05-17 20:00:00,73.2,62.0,29.86,SE,135,0.0,0.0,68,0.00,,,0.00,VWS V14.00,2013-05-18 01:00:00,
2013-05-17 20:05:00,72.9,62.1,29.86,SE,135,0.0,0.0,69,0.00,,,0.00,VWS V14.00,2013-05-18 01:05:00,
2013-05-17 20:10:00,72.5,62.2,29.86,SE,135,0.0,0.0,70,0.00,,,0.00,VWS V14.00,2013-05-18 01:10:00,
2013-05-17 20:15:00,72.2,61.9,29.86,SE,135,0.0,0.0,70,0.00,,,0.00,VWS V14.00,2013-05-18 01:15:00,
2013-05-17 20:20:00,71.8,62.3,29.86,SE,135,0.0,0.0,72,0.00,,,0.00,VWS V14.00,2013-05-18 01:20:00,
2013-05-17 20:25:00,71.4,62.3,29.86,SE,135,0.0,0.0,73,0.00,,,0.00,VWS V14.00,2013-05-18 01:25:00,
2013-05-17 20:30:00,71.0,61.9,29.86,SE,135,0.0,0.0,73,0.00,,,0.00,VWS V14.00,2013-05-18 01:30:00,
2013-05-17 20:35:00,70.6,61.5,29.86,SE,135,0.0,0.0,73,0.00,,,0.00,VWS V14.00,2013-05-18 01:35:00,
2013-05-17 20:40:00,70.2,61.5,29.86,SE,135,0.0,0.0,74,0.00,,,0.00,VWS V14.00,2013-05-18 01:40:00,
2013-05-17 20:45:00,69.9,61.6,29.86,SE,135,0.0,0.0,75,0.00,,,0.00,VWS V14.00,2013-05-18 01:45:00,
2013-05-17 20:50:00,69.6,61.3,29.86,SE,135,0.0,0.0,75,0.00,,,0.00,VWS V14.00,2013-05-18 01:50:00,
2013-05-17 20:55:00,69.1,61.2,29.86,SE,135,0.0,0.0,76,0.00,,,0.00,VWS V14.00,2013-05-18 01:55:00,
2013-05-17 21:00:00,68.8,61.3,29.87,SE,135,0.0,0.0,77,0.00,,,0.00,VWS V14.00,2013-05-18 02:00:00,
2013-05-17 21:05:00,68.4,60.9,29.87,SE,135,0.0,0.0,77,0.00,,,0.00,VWS V14.00,2013-05-18 02:05:00,
2013-05-17 21:10:00,68.1,61.0,29.87,SE,135,0.0,0.0,78,0.00,,,0.00,VWS V14.00,2013-05-18 02:10:00,
2013-05-17 21:15:00,67.8,61.1,29.87,SE,135,0.0,0.0,79,0.00,,,0.00,VWS V14.00,2013-05-18 02:15:00,
2013-05-17 21:20:00,67.6,60.9,29.87,SE,135,0.0,0.0,79,0.00,,,0.00,VWS V14.00,2013-05-18 02:20:00,
2013-05-17 21:25:00,67.3,60.9,29.87,SE,135,0.0,0.0,80,0.00,,,0.00,VWS V14.00,2013-05-18 02:25:00,
2013-05-17 21:30:00,67.0,60.6,29.87,SE,135,0.0,0.0,80,0.00,,,0.00,VWS V14.00,2013-05-18 02:30:00,
2013-05-17 21:35:00,66.8,60.8,29.87,SE,135,0.0,0.0,81,0.00,,,0.00,VWS V14.00,2013-05-18 02:35:00,
2013-05-17 21:40:00,66.5,60.5,29.87,SE,135,0.0,0.0,81,0.00,,,0.00,VWS V14.00,2013-05-18 02:40:00,
2013-05-17 21:45:00,66.3,60.7,29.88,SE,135,0.0,0.0,82,0.00,,,0.00,VWS V14.00,2013-05-18 02:45:00,
2013-05-17 21:50:00,66.1,60.5,29.88,SE,135,0.0,0.0,82,0.00,,,0.00,VWS V14.00,2013-05-18 02:50:00,
2013-05-17 21:55:00,65.9,60.3,29.88,SE,135,0.0,0.0,82,0.00,,,0.00,VWS V14.00,2013-05-18 02:55:00,
2013-05-17 22:00:00,65.7,60.4,29.88,SE,135,0.0,0.0,83,0.00,,,0.00,VWS V14.00,2013-05-18 03:00:00,
2013-05-17 22:05:00,65.5,60.2,29.88,SE,135,0.0,0.0,83,0.00,,,0.00,VWS V14.00,2013-05-18 03:05:00,
2013-05-17 22:10:00,65.3,60.3,29.88,SE,135,0.0,0.0,84,0.00,,,0.00,VWS V14.00,2013-05-18 03:10:00,
2013-05-17 22:15:00,65.0,60.0,29.88,SE,135,0.0,0.0,84,0.00,,,0.00,VWS V14.00,2013-05-18 03:15:00,
2013-05-17 22:20:00,64.8,60.2,29.89,SE,135,0.0,0.0,85,0.00,,,0.00,VWS V14.00,2013-05-18 03:20:00,
2013-05-17 22:25:00,64.6,60.3,29.89,SE,135,0.0,0.0,86,0.00,,,0.00,VWS V14.00,2013-05-18 03:25:00,
2013-05-17 22:30:00,64.4,60.1,29.89,SE,135,0.0,0.0,86,0.00,,,0.00,VWS V14.00,2013-05-18 03:30:00,
2013-05-17 22:35:00,64.2,59.9,29.89,SE,135,0.0,0.0,86,0.00,,,0.00,VWS V14.00,2013-05-18 03:35:00,
2013-05-17 22:40:00,64.0,60.1,29.89,SE,135,0.0,0.0,87,0.00,,,0.00,VWS V14.00,2013-05-18 03:40:00,
2013-05-17 22:45:00,63.7,59.8,29.89,SE,135,0.0,1.0,87,0.00,,,0.00,VWS V14.00,2013-05-18 03:45:00,
2013-05-17 22:50:00,63.4,59.8,29.89,SE,135,0.0,1.0,88,0.00,,,0.00,VWS V14.00,2013-05-18 03:50:00,
2013-05-17 22:55:00,63.2,59.6,29.90,ESE,112,2.0,3.0,88,0.00,,,0.00,VWS V14.00,2013-05-18 03:55:00,
2013-05-17 23:00:00,63.1,59.8,29.90,ESE,112,1.0,3.0,89,0.00,,,0.00,VWS V14.00,2013-05-18 04:00:00,
2013-05-17 23:05:00,63.0,60.0,29.90,ESE,112,0.0,2.0,90,0.00,,,0.00,VWS V14.00,2013-05-18 04:05:00,
2013-05-17 23:10:00,63.1,60.1,29.90,ESE,112,0.0,1.0,90,0.00,,,0.00,VWS V14.00,2013-05-18 04:10:00,
2013-05-17 23:15:00,63.1,60.1,29.90,ESE,112,0.0,1.0,90,0.00,,,0.00,VWS V14.00,2013-05-18 04:15:00,
2013-05-17 23:20:00,63.1,60.4,29.90,ESE,112,0.0,1.0,91,0.00,,,0.00,VWS V14.00,2013-05-18 04:20:00,
2013-05-17 23:25:00,63.1,60.4,29.90,ESE,112,0.0,0.0,91,0.00,,,0.00,VWS V14.00,2013-05-18 04:25:00,
2013-05-17 23:30:00,63.0,60.3,29.90,ESE,112,0.0,0.0,91,0.00,,,0.00,VWS V14.00,2013-05-18 04:30:00,
2013-05-17 23:35:00,62.9,60.2,29.90,ESE,112,0.0,0.0,91,0.00,,,0.00,VWS V14.00,2013-05-18 04:35:00,
2013-05-17 23:40:00,62.8,60.1,29.90,ESE,112,0.0,0.0,91,0.00,,,0.00,VWS V14.00,2013-05-18 04:40:00,
2013-05-17 23:45:00,62.7,60.0,29.90,ESE,112,0.0,0.0,91,0.00,,,0.00,VWS V14.00,2013-05-18 04:45:00,
2013-05-17 23:50:00,62.6,59.9,29.90,ESE,112,0.0,0.0,91,0.00,,,0.00,VWS V14.00,2013-05-18 04:50:00,
2013-05-17 23:55:00,62.4,59.4,29.90,ESE,112,0.0,0.0,90,0.00,,,0.00,VWS V14.00,2013-05-18 04:55:00,